This is the latest recevied weather packets stored in our database for station/object KC3UTO. If no packets are shown the sender has not sent any weather packets the latest 10 day(s).
| Time | Temp. | Humidity | Pressure | Rain* | Wind** | Luminosity | Snow |
|---|---|---|---|---|---|---|---|
| 1777667451 | 17.78° C | 37% | 1009.7 hPa | 0 mm | - | 97 W/m² | - |
| 1777667148 | 17.22° C | 36% | 1009.7 hPa | 0 mm | - | 92 W/m² | - |
| 1777666845 | 17.78° C | 34% | 1009.9 hPa | 0 mm | - | 91 W/m² | - |
| 1777666542 | 17.78° C | 36% | 1009.8 hPa | 0 mm | - | 147 W/m² | - |
| 1777666238 | 17.78° C | 36% | 1009.9 hPa | 0 mm | - | 145 W/m² | - |
| 1777665936 | 17.22° C | 37% | 1009.9 hPa | 0 mm | - | 188 W/m² | - |
| 1777665633 | 16.67° C | 37% | 1010.1 hPa | 0 mm | - | 136 W/m² | - |
| 1777665330 | 17.22° C | 35% | 1010 hPa | 0 mm | - | 139 W/m² | - |
| 1777665026 | 17.22° C | 35% | 1010.2 hPa | 0 mm | - | 127 W/m² | - |
| 1777664722 | 17.78° C | 34% | 1010.1 hPa | 0 mm | - | 86 W/m² | - |
| 1777664417 | 17.78° C | 35% | 1010.2 hPa | 0 mm | - | 92 W/m² | - |
| 1777664115 | 17.78° C | 33% | 1010.2 hPa | 0 mm | - | 87 W/m² | - |
| 1777663814 | 17.22° C | 34% | 1010.3 hPa | 0 mm | - | 84 W/m² | - |
| 1777663510 | 17.78° C | 33% | 1010.5 hPa | 0 mm | - | 89 W/m² | - |
| 1777663208 | 17.22° C | 33% | 1010.4 hPa | 0 mm | - | 225 W/m² | - |
| 1777662905 | 17.22° C | 35% | 1010.5 hPa | 0 mm | - | 151 W/m² | - |
| 1777662602 | 17.78° C | 34% | 1010.7 hPa | 0 mm | - | 495 W/m² | - |
| 1777662297 | 17.78° C | 34% | 1010.7 hPa | 0 mm | - | 781 W/m² | - |
| 1777661993 | 17.78° C | 37% | 1010.7 hPa | 0 mm | - | 791 W/m² | - |
| 1777661689 | 17.22° C | 35% | 1011 hPa | 0 mm | - | 803 W/m² | - |
| 1777661385 | 17.78° C | 36% | 1010.9 hPa | 0 mm | - | 822 W/m² | - |
| 1777661082 | 17.78° C | 35% | 1010.8 hPa | 0 mm | - | 815 W/m² | - |
| 1777660776 | 17.78° C | 35% | 1011 hPa | 0 mm | - | 854 W/m² | - |
| 1777660474 | 17.78° C | 38% | 1010.9 hPa | 0 mm | - | 877 W/m² | - |
| 1777660170 | 17.22° C | 35% | 1011 hPa | 0 mm | - | 836 W/m² | - |
* Rain latest hour (hover to see other rain measurements)
** Current wind speed in m/s (hover to see current wind gust speed)